2021-088B (49261 NORAD) Tracking and Keplerian Element Data

This shows tracking and keplerian element data for the satellite.

Feedback or suggestion? Click here.




ElementValue
Catalog49261
Name2021-088B
Epoch Orbit428
Epoch Day299.41596451
Epoch Year2021
RAAN6.8953
Inclination97.6295
Eccentricity0.0023657
Argument of Perigee152.9652
Mean Anonmoly207.281
Mean Motion15.00393289
Decay Rate1.11E-05
L11 49261U 21088B 21299.41596451 .00001110 00000-0 92639-4 0 9995
L22 49261 97.6295 6.8953 0023657 152.9652 207.2810 15.00393289 4280

Live tracking and technical data element details for 2021-088B (NORAD 49261). 2021-088B can be tracked NOW for your location showing map with azimuth and elevation plus other details from your city location.

Track the satellite on the map from your city or location and see movement details for azimuth, elevation, latitude, longitude, range, height, and movement on the map or in text.







IsCatalogInMostPopularTable: catalog: 49261, numindb: 17
Update: records affected: 1



GetName: 49261 2021-088B

Hit Count: updated at: Mon, 06 Dec 2021 14:52:11 GMT